Find Starlink 2144

NORAD ID: 47734 Int'l Des: 2021-017 Owner: SPXS Country: US Constellation: starlink operational
LEOCIRCULAR

リアルタイム位置

3D地球を読み込み中...

Starlink 2144について

説明を読み込み中...

次回通過

Passes for default location (London). Set your location on the main map for personalized predictions.

高度履歴

Loading altitude history...

軌道要素

1 47734U 21017N 26123.72628505 .00005795 00000-0 19833-3 0 9998
2 47734 53.1593 308.0226 0001082 62.5327 297.5784 15.31706828286290
Epoch: May 3, 2026 • Age: 9 hours

現在のステータス

高度 480.0 km
速度 7.63 km/s
衛星直下点 -30.11°S, 18.74°E
打ち上げ日 Mar 4, 2021
運用期間 5.1 years
タイプ internet

技術仕様

分類 Payload
質量 260.00 kg
乾燥質量 248.00 kg
総質量 260.00 kg
長さ 0.20 m
直径 2.80 m
スパン 9.00 m
形状 Box + pan
製造者 SPXS
バスタイプ Starlink
フェーズステータス In Orbit
所有者/国 SPXS/US

Most Searched